Location: Baia de Cri?
(46.1667°N, 22.7167°E)
Time: 08:21:13
(UTC+00:00)

Nadezhda 3 Rocket - Pass Details

Date: 15 January 2026
Orbit: 956 x 998 km, 82.9° (Epoch: 10 February)

Event Time Altitude Azimuth Distance (km) Brightness Sun altitude
Rises 04:12:23 0° 351° (N) 3,672 6.8 -19.5°
Reaches altitude 10° 04:14:54 10° 352° (N) 2,727 6.2 -19.0°
Maximum altitude 04:21:10 86° 80° (E) 989 4.0 -18.0°
Drops below altitude 10° 04:27:28 10° 172° (S) 2,737 6.6 -16.9°
Sets 04:29:59 0° 172° (S) 3,687 7.3 -16.5°
